Time,TemperatureF,DewpointF,PressureIn,WindDirection,WindDirectionDegrees,WindSpeedMPH,WindSpeedGustMPH,Humidity,HourlyPrecipIn,Conditions,Clouds,dailyrainin,SoftwareType,DateUTC
2013-05-14 00:00:00,56.4,38.5,29.94,SE,144,2.0,4.0,51,0.00,,,0.00,WeatherTracker,2013-05-14 05:00:00,
2013-05-14 00:10:00,56.0,39.1,29.93,SE,144,4.0,4.0,53,0.00,,,0.00,WeatherTracker,2013-05-14 05:10:00,
2013-05-14 00:15:00,55.7,38.8,29.93,SSE,157,1.0,6.0,53,0.00,,,0.00,WeatherTracker,2013-05-14 05:15:00,
2013-05-14 00:20:00,55.4,38.6,29.93,ESE,104,3.0,8.0,53,0.00,,,0.00,WeatherTracker,2013-05-14 05:20:00,
2013-05-14 00:30:00,55.1,38.8,29.93,SSE,165,4.0,9.0,54,0.00,,,0.00,WeatherTracker,2013-05-14 05:30:00,
2013-05-14 00:35:00,54.9,38.6,29.92,South,169,2.0,6.0,54,0.00,,,0.00,WeatherTracker,2013-05-14 05:35:00,
2013-05-14 00:40:00,54.8,38.9,29.92,South,174,3.0,6.0,55,0.00,,,0.00,WeatherTracker,2013-05-14 05:40:00,
2013-05-14 00:50:00,54.6,38.8,29.91,SSE,156,3.0,8.0,55,0.00,,,0.00,WeatherTracker,2013-05-14 05:50:00,
2013-05-14 00:55:00,54.5,39.1,29.91,South,171,0.0,6.0,56,0.00,,,0.00,WeatherTracker,2013-05-14 05:55:00,
2013-05-14 01:05:00,54.3,38.9,29.90,South,182,2.0,9.0,56,0.00,,,0.00,WeatherTracker,2013-05-14 06:05:00,
2013-05-14 01:10:00,54.2,38.8,29.90,SSE,159,3.0,6.0,56,0.00,,,0.00,WeatherTracker,2013-05-14 06:10:00,
2013-05-14 01:15:00,54.2,38.8,29.90,SE,137,2.0,7.0,56,0.00,,,0.00,WeatherTracker,2013-05-14 06:15:00,
2013-05-14 01:25:00,54.3,38.9,29.89,SSE,155,7.0,10.0,56,0.00,,,0.00,WeatherTracker,2013-05-14 06:25:00,
2013-05-14 01:30:00,54.4,39.0,29.89,SE,134,4.0,13.0,56,0.00,,,0.00,WeatherTracker,2013-05-14 06:30:00,
2013-05-14 01:35:00,54.6,39.2,29.88,South,178,4.0,13.0,56,0.00,,,0.00,WeatherTracker,2013-05-14 06:35:00,
2013-05-14 01:40:00,54.8,38.9,29.88,SSW,201,3.0,11.0,55,0.00,,,0.00,WeatherTracker,2013-05-14 06:40:00,
2013-05-14 01:50:00,55.1,39.2,29.87,East,98,1.0,10.0,55,0.00,,,0.00,WeatherTracker,2013-05-14 06:50:00,
2013-05-14 01:55:00,55.2,39.8,29.87,SSE,154,2.0,10.0,56,0.00,,,0.00,WeatherTracker,2013-05-14 06:55:00,
2013-05-14 02:00:00,55.3,39.9,29.87,SSE,162,5.0,10.0,56,0.00,,,0.00,WeatherTracker,2013-05-14 07:00:00,
2013-05-14 02:10:00,55.5,40.1,29.86,SE,130,4.0,8.0,56,0.00,,,0.00,WeatherTracker,2013-05-14 07:10:00,
2013-05-14 02:20:00,55.7,39.8,29.86,SE,146,5.0,11.0,55,0.00,,,0.00,WeatherTracker,2013-05-14 07:20:00,
2013-05-14 02:25:00,55.8,40.3,29.85,South,169,8.0,9.0,56,0.00,,,0.00,WeatherTracker,2013-05-14 07:25:00,
2013-05-14 02:30:00,55.9,40.0,29.85,SSE,152,5.0,12.0,55,0.00,,,0.00,WeatherTracker,2013-05-14 07:30:00,
2013-05-14 02:35:00,56.0,40.1,29.84,SSE,159,1.0,12.0,55,0.00,,,0.00,WeatherTracker,2013-05-14 07:35:00,
2013-05-14 02:40:00,56.1,40.2,29.84,SW,215,6.0,9.0,55,0.00,,,0.00,WeatherTracker,2013-05-14 07:40:00,
2013-05-14 02:50:00,56.2,40.2,29.84,SSE,163,10.0,12.0,55,0.00,,,0.00,WeatherTracker,2013-05-14 07:50:00,
2013-05-14 02:55:00,56.3,40.3,29.83,South,178,4.0,12.0,55,0.00,,,0.00,WeatherTracker,2013-05-14 07:55:00,
2013-05-14 03:00:00,56.4,40.0,29.83,SE,144,7.0,11.0,54,0.00,,,0.00,WeatherTracker,2013-05-14 08:00:00,
2013-05-14 03:05:00,56.3,40.3,29.82,SSE,161,4.0,11.0,55,0.00,,,0.00,WeatherTracker,2013-05-14 08:05:00,
2013-05-14 03:10:00,56.2,40.2,29.82,SSE,166,4.0,11.0,55,0.00,,,0.00,WeatherTracker,2013-05-14 08:10:00,
2013-05-14 03:15:00,56.1,40.2,29.82,SSW,192,4.0,11.0,55,0.00,,,0.00,WeatherTracker,2013-05-14 08:15:00,
2013-05-14 03:20:00,56.0,40.1,29.82,SSE,164,14.0,14.0,55,0.00,,,0.00,WeatherTracker,2013-05-14 08:20:00,
2013-05-14 03:25:00,55.9,40.4,29.82,South,182,6.0,15.0,56,0.00,,,0.00,WeatherTracker,2013-05-14 08:25:00,
2013-05-14 03:30:00,55.9,40.4,29.81,South,182,4.0,15.0,56,0.00,,,0.00,WeatherTracker,2013-05-14 08:30:00,
2013-05-14 03:35:00,55.8,40.3,29.81,South,189,4.0,12.0,56,0.00,,,0.00,WeatherTracker,2013-05-14 08:35:00,
2013-05-14 03:45:00,55.7,40.7,29.81,SSW,198,4.0,11.0,57,0.00,,,0.00,WeatherTracker,2013-05-14 08:45:00,
2013-05-14 03:50:00,55.6,40.6,29.81,SSE,167,9.0,11.0,57,0.00,,,0.00,WeatherTracker,2013-05-14 08:50:00,
2013-05-14 04:00:00,55.5,41.0,29.80,SSE,149,1.0,11.0,58,0.00,,,0.00,WeatherTracker,2013-05-14 09:00:00,
2013-05-14 04:05:00,55.4,40.9,29.79,SW,228,7.0,11.0,58,0.00,,,0.00,WeatherTracker,2013-05-14 09:05:00,
2013-05-14 04:10:00,55.3,41.2,29.79,SSW,196,5.0,11.0,59,0.00,,,0.00,WeatherTracker,2013-05-14 09:10:00,
2013-05-14 04:20:00,55.1,41.5,29.79,South,175,6.0,12.0,60,0.00,,,0.00,WeatherTracker,2013-05-14 09:20:00,
2013-05-14 04:25:00,55.0,41.4,29.79,South,190,3.0,12.0,60,0.00,,,0.00,WeatherTracker,2013-05-14 09:25:00,
2013-05-14 04:30:00,55.0,41.4,29.79,SSE,161,5.0,10.0,60,0.00,,,0.00,WeatherTracker,2013-05-14 09:30:00,
2013-05-14 04:40:00,54.9,41.7,29.79,SSW,204,2.0,12.0,61,0.00,,,0.00,WeatherTracker,2013-05-14 09:40:00,
2013-05-14 04:50:00,54.8,41.6,29.79,SSE,164,2.0,9.0,61,0.00,,,0.00,WeatherTracker,2013-05-14 09:50:00,
2013-05-14 04:55:00,54.7,41.9,29.79,South,170,3.0,9.0,62,0.00,,,0.00,WeatherTracker,2013-05-14 09:55:00,
2013-05-14 05:05:00,54.4,41.7,29.79,SW,232,5.0,9.0,62,0.00,,,0.00,WeatherTracker,2013-05-14 10:05:00,
2013-05-14 05:10:00,54.4,42.1,29.78,SSW,194,4.0,8.0,63,0.00,,,0.00,WeatherTracker,2013-05-14 10:10:00,
2013-05-14 05:15:00,54.3,42.0,29.79,South,170,4.0,10.0,63,0.00,,,0.00,WeatherTracker,2013-05-14 10:15:00,
2013-05-14 05:25:00,54.1,42.2,29.78,SSW,202,3.0,9.0,64,0.00,,,0.00,WeatherTracker,2013-05-14 10:25:00,
2013-05-14 05:30:00,54.1,42.2,29.78,SW,221,1.0,7.0,64,0.00,,,0.00,WeatherTracker,2013-05-14 10:30:00,
2013-05-14 05:40:00,54.0,42.5,29.78,SSW,198,1.0,11.0,65,0.00,,,0.00,WeatherTracker,2013-05-14 10:40:00,
2013-05-14 05:45:00,53.9,42.4,29.78,South,171,0.0,7.0,65,0.00,,,0.00,WeatherTracker,2013-05-14 10:45:00,
2013-05-14 05:50:00,53.7,42.6,29.78,SSW,211,4.0,8.0,66,0.00,,,0.00,WeatherTracker,2013-05-14 10:50:00,
2013-05-14 06:00:00,53.6,42.9,29.78,South,178,2.0,9.0,67,0.00,,,0.00,WeatherTracker,2013-05-14 11:00:00,
2013-05-14 06:05:00,53.5,42.8,29.78,SSE,154,1.0,6.0,67,0.00,,,0.00,WeatherTracker,2013-05-14 11:05:00,
2013-05-14 06:10:00,53.4,43.1,29.78,South,172,2.0,7.0,68,0.00,,,0.00,WeatherTracker,2013-05-14 11:10:00,
2013-05-14 06:15:00,53.4,43.1,29.78,SSE,167,0.0,10.0,68,0.00,,,0.00,WeatherTracker,2013-05-14 11:15:00,
2013-05-14 06:25:00,53.5,43.6,29.78,SW,219,0.0,6.0,69,0.00,,,0.00,WeatherTracker,2013-05-14 11:25:00,
2013-05-14 06:30:00,53.6,43.7,29.78,SW,229,3.0,7.0,69,0.00,,,0.00,WeatherTracker,2013-05-14 11:30:00,
2013-05-14 06:40:00,53.7,43.8,29.78,SSW,211,2.0,8.0,69,0.00,,,0.00,WeatherTracker,2013-05-14 11:40:00,
2013-05-14 06:45:00,53.9,44.0,29.78,WSW,242,1.0,8.0,69,0.00,,,0.00,WeatherTracker,2013-05-14 11:45:00,
2013-05-14 06:50:00,53.9,44.0,29.78,SE,135,2.0,6.0,69,0.00,,,0.00,WeatherTracker,2013-05-14 11:50:00,
2013-05-14 06:55:00,54.0,44.4,29.78,SW,227,2.0,6.0,70,0.00,,,0.00,WeatherTracker,2013-05-14 11:55:00,
2013-05-14 07:05:00,54.3,44.3,29.78,West,270,4.0,7.0,69,0.00,,,0.00,WeatherTracker,2013-05-14 12:05:00,
2013-05-14 07:10:00,54.5,44.9,29.78,SW,223,1.0,8.0,70,0.00,,,0.00,WeatherTracker,2013-05-14 12:10:00,
2013-05-14 07:15:00,54.7,45.1,29.78,West,259,1.0,8.0,70,0.00,,,0.00,WeatherTracker,2013-05-14 12:15:00,
2013-05-14 07:25:00,55.0,45.4,29.78,WSW,250,4.0,7.0,70,0.00,,,0.00,WeatherTracker,2013-05-14 12:25:00,
2013-05-14 07:30:00,55.3,45.7,29.78,SW,214,3.0,7.0,70,0.00,,,0.00,WeatherTracker,2013-05-14 12:30:00,
2013-05-14 07:35:00,55.5,45.9,29.78,WSW,240,7.0,7.0,70,0.00,,,0.00,WeatherTracker,2013-05-14 12:35:00,
2013-05-14 07:45:00,55.9,46.6,29.77,SW,233,2.0,8.0,71,0.00,,,0.00,WeatherTracker,2013-05-14 12:45:00,
2013-05-14 07:50:00,56.1,46.8,29.77,WSW,246,4.0,10.0,71,0.00,,,0.00,WeatherTracker,2013-05-14 12:50:00,
2013-05-14 08:00:00,56.7,47.8,29.77,SW,216,2.0,9.0,72,0.00,,,0.00,WeatherTracker,2013-05-14 13:00:00,
2013-05-14 08:05:00,57.1,47.8,29.77,SW,221,6.0,9.0,71,0.00,,,0.00,WeatherTracker,2013-05-14 13:05:00,
2013-05-14 08:10:00,57.5,48.2,29.77,SW,226,7.0,9.0,71,0.00,,,0.00,WeatherTracker,2013-05-14 13:10:00,
2013-05-14 08:15:00,58.2,48.8,29.77,SW,230,5.0,9.0,71,0.00,,,0.00,WeatherTracker,2013-05-14 13:15:00,
2013-05-14 08:20:00,60.1,49.9,29.77,SW,226,6.0,12.0,69,0.00,,,0.00,WeatherTracker,2013-05-14 13:20:00,
2013-05-14 08:30:00,61.6,50.5,29.77,SW,234,3.0,12.0,67,0.00,,,0.00,WeatherTracker,2013-05-14 13:30:00,
2013-05-14 08:35:00,62.1,50.2,29.77,West,269,1.0,12.0,65,0.00,,,0.00,WeatherTracker,2013-05-14 13:35:00,
2013-05-14 08:40:00,62.8,51.3,29.76,SW,232,3.0,7.0,66,0.00,,,0.00,WeatherTracker,2013-05-14 13:40:00,
2013-05-14 08:50:00,63.8,51.4,29.76,SW,229,2.0,7.0,64,0.00,,,0.00,WeatherTracker,2013-05-14 13:50:00,
2013-05-14 08:55:00,64.3,51.0,29.76,WSW,255,1.0,7.0,62,0.00,,,0.00,WeatherTracker,2013-05-14 13:55:00,
2013-05-14 09:00:00,64.7,51.4,29.76,WSW,244,3.0,8.0,62,0.00,,,0.00,WeatherTracker,2013-05-14 14:00:00,
2013-05-14 09:05:00,65.3,52.8,29.76,WNW,298,3.0,9.0,64,0.00,,,0.00,WeatherTracker,2013-05-14 14:05:00,
2013-05-14 09:10:00,65.6,51.8,29.76,WSW,240,2.0,9.0,61,0.00,,,0.00,WeatherTracker,2013-05-14 14:10:00,
2013-05-14 09:20:00,66.4,52.5,29.75,SSW,202,1.0,8.0,61,0.00,,,0.00,WeatherTracker,2013-05-14 14:20:00,
2013-05-14 09:25:00,67.0,53.1,29.75,NW,321,1.0,8.0,61,0.00,,,0.00,WeatherTracker,2013-05-14 14:25:00,
2013-05-14 09:30:00,67.2,52.4,29.75,WNW,286,1.0,8.0,59,0.00,,,0.00,WeatherTracker,2013-05-14 14:30:00,
2013-05-14 09:40:00,68.2,53.3,29.75,SW,222,3.0,8.0,59,0.00,,,0.00,WeatherTracker,2013-05-14 14:40:00,
2013-05-14 09:45:00,68.4,54.0,29.75,SSW,206,1.0,7.0,60,0.00,,,0.00,WeatherTracker,2013-05-14 14:45:00,
2013-05-14 09:55:00,69.0,53.6,29.75,NW,315,2.0,6.0,58,0.00,,,0.00,WeatherTracker,2013-05-14 14:55:00,
2013-05-14 10:00:00,69.5,53.6,29.75,West,261,2.0,6.0,57,0.00,,,0.00,WeatherTracker,2013-05-14 15:00:00,
2013-05-14 10:10:00,70.3,54.3,29.76,SW,234,1.0,7.0,57,0.00,,,0.00,WeatherTracker,2013-05-14 15:10:00,
2013-05-14 10:15:00,70.4,53.9,29.75,WSW,240,0.0,7.0,56,0.00,,,0.00,WeatherTracker,2013-05-14 15:15:00,
2013-05-14 10:20:00,71.0,54.5,29.76,NW,314,5.0,6.0,56,0.00,,,0.00,WeatherTracker,2013-05-14 15:20:00,
2013-05-14 10:30:00,72.1,54.5,29.76,WSW,238,2.0,8.0,54,0.00,,,0.00,WeatherTracker,2013-05-14 15:30:00,
2013-05-14 10:35:00,73.0,55.9,29.76,WSW,242,2.0,8.0,55,0.00,,,0.00,WeatherTracker,2013-05-14 15:35:00,
2013-05-14 10:40:00,74.3,56.0,29.76,West,273,5.0,8.0,53,0.00,,,0.00,WeatherTracker,2013-05-14 15:40:00,
2013-05-14 10:50:00,73.8,55.6,29.76,NW,321,3.0,6.0,53,0.00,,,0.00,WeatherTracker,2013-05-14 15:50:00,
2013-05-14 10:55:00,74.4,56.1,29.77,WSW,255,2.0,7.0,53,0.00,,,0.00,WeatherTracker,2013-05-14 15:55:00,
2013-05-14 11:00:00,74.7,55.4,29.77,WSW,253,1.0,9.0,51,0.00,,,0.00,WeatherTracker,2013-05-14 16:00:00,
2013-05-14 11:05:00,75.5,56.1,29.77,SW,232,4.0,9.0,51,0.00,,,0.00,WeatherTracker,2013-05-14 16:05:00,
2013-05-14 11:10:00,76.6,57.6,29.78,SW,236,1.0,5.0,52,0.00,,,0.00,WeatherTracker,2013-05-14 16:10:00,
2013-05-14 11:20:00,77.2,57.6,29.78,SW,232,1.0,7.0,51,0.00,,,0.00,WeatherTracker,2013-05-14 16:20:00,
2013-05-14 11:25:00,77.5,55.7,29.78,SE,145,2.0,6.0,47,0.00,,,0.00,WeatherTracker,2013-05-14 16:25:00,
2013-05-14 11:35:00,78.0,58.4,29.78,SSW,197,0.0,8.0,51,0.00,,,0.00,WeatherTracker,2013-05-14 16:35:00,
2013-05-14 11:40:00,78.9,59.8,29.78,WNW,293,2.0,7.0,52,0.00,,,0.00,WeatherTracker,2013-05-14 16:40:00,
2013-05-14 11:50:00,80.2,61.5,29.78,West,265,3.0,10.0,53,0.00,,,0.00,WeatherTracker,2013-05-14 16:50:00,
2013-05-14 11:55:00,80.0,56.7,29.77,WSW,252,0.0,7.0,45,0.00,,,0.00,WeatherTracker,2013-05-14 16:55:00,
2013-05-14 12:00:00,80.3,56.4,29.77,SW,226,0.0,7.0,44,0.00,,,0.00,WeatherTracker,2013-05-14 17:00:00,
2013-05-14 12:05:00,81.7,58.9,29.77,SW,233,5.0,6.0,46,0.00,,,0.00,WeatherTracker,2013-05-14 17:05:00,
2013-05-14 12:15:00,82.0,53.9,29.77,NNW,328,3.0,6.0,38,0.00,,,0.00,WeatherTracker,2013-05-14 17:15:00,
2013-05-14 12:25:00,83.0,56.2,29.77,SW,223,1.0,6.0,40,0.00,,,0.00,WeatherTracker,2013-05-14 17:25:00,
2013-05-14 12:30:00,83.1,60.1,29.76,SW,219,0.0,6.0,46,0.00,,,0.00,WeatherTracker,2013-05-14 17:30:00,
2013-05-14 12:40:00,83.1,53.4,29.76,SW,236,1.0,6.0,36,0.00,,,0.00,WeatherTracker,2013-05-14 17:40:00,
2013-05-14 12:45:00,83.6,58.7,29.76,SSW,198,1.0,6.0,43,0.00,,,0.00,WeatherTracker,2013-05-14 17:45:00,
2013-05-14 12:50:00,83.5,59.9,29.76,South,178,3.0,6.0,45,0.00,,,0.00,WeatherTracker,2013-05-14 17:50:00,
2013-05-14 13:00:00,84.3,55.2,29.76,SSW,210,1.0,6.0,37,0.00,,,0.00,WeatherTracker,2013-05-14 18:00:00,
2013-05-14 13:05:00,85.6,53.2,29.76,NW,320,2.0,7.0,33,0.00,,,0.00,WeatherTracker,2013-05-14 18:05:00,
2013-05-14 13:10:00,84.8,52.5,29.76,WSW,246,3.0,7.0,33,0.00,,,0.00,WeatherTracker,2013-05-14 18:10:00,
2013-05-14 13:20:00,85.8,55.7,29.76,WSW,254,0.0,6.0,36,0.00,,,0.00,WeatherTracker,2013-05-14 18:20:00,
2013-05-14 13:25:00,85.6,58.5,29.77,WSW,252,4.0,7.0,40,0.00,,,0.00,WeatherTracker,2013-05-14 18:25:00,
2013-05-14 13:30:00,86.1,55.2,29.76,NNW,340,0.0,7.0,35,0.00,,,0.00,WeatherTracker,2013-05-14 18:30:00,
2013-05-14 13:35:00,85.8,58.7,29.76,NNE,13,5.0,6.0,40,0.00,,,0.00,WeatherTracker,2013-05-14 18:35:00,
2013-05-14 13:45:00,86.5,57.1,29.76,NNE,26,0.0,7.0,37,0.00,,,0.00,WeatherTracker,2013-05-14 18:45:00,
2013-05-14 13:50:00,87.8,60.4,29.77,NW,319,4.0,5.0,40,0.00,,,0.00,WeatherTracker,2013-05-14 18:50:00,
2013-05-14 13:55:00,87.9,59.1,29.76,NE,44,0.0,7.0,38,0.00,,,0.00,WeatherTracker,2013-05-14 18:55:00,
2013-05-14 14:00:00,88.4,54.7,29.76,NNE,23,1.0,7.0,32,0.00,,,0.00,WeatherTracker,2013-05-14 19:00:00,
2013-05-14 14:10:00,86.7,54.9,29.76,ENE,68,1.0,4.0,34,0.00,,,0.00,WeatherTracker,2013-05-14 19:10:00,
2013-05-14 14:15:00,87.5,54.0,29.76,North,355,0.0,4.0,32,0.00,,,0.00,WeatherTracker,2013-05-14 19:15:00,
2013-05-14 14:20:00,86.3,57.7,29.75,SE,146,0.0,4.0,38,0.00,,,0.00,WeatherTracker,2013-05-14 19:20:00,
2013-05-14 14:30:00,87.6,54.9,29.76,NNE,26,3.0,5.0,33,0.00,,,0.00,WeatherTracker,2013-05-14 19:30:00,
2013-05-14 14:35:00,88.1,54.5,29.76,NNE,28,1.0,6.0,32,0.00,,,0.00,WeatherTracker,2013-05-14 19:35:00,
2013-05-14 14:40:00,88.8,55.9,29.75,ENE,60,1.0,6.0,33,0.00,,,0.00,WeatherTracker,2013-05-14 19:40:00,
2013-05-14 14:45:00,88.6,58.2,29.75,ENE,71,1.0,3.0,36,0.00,,,0.00,WeatherTracker,2013-05-14 19:45:00,
2013-05-14 14:50:00,88.0,56.9,29.75,ENE,57,2.0,3.0,35,0.00,,,0.00,WeatherTracker,2013-05-14 19:50:00,
2013-05-14 15:00:00,86.4,55.5,29.74,East,88,2.0,3.0,35,0.00,,,0.00,WeatherTracker,2013-05-14 20:00:00,
2013-05-14 15:05:00,85.2,54.4,29.73,East,98,1.0,2.0,35,0.00,,,0.00,WeatherTracker,2013-05-14 20:05:00,
2013-05-14 15:10:00,87.4,53.9,29.73,SE,124,2.0,2.0,32,0.00,,,0.00,WeatherTracker,2013-05-14 20:10:00,
2013-05-14 15:15:00,86.8,54.2,29.73,SSE,165,1.0,4.0,33,0.00,,,0.00,WeatherTracker,2013-05-14 20:15:00,
2013-05-14 15:25:00,86.6,51.4,29.72,SSE,166,2.0,5.0,30,0.00,,,0.00,WeatherTracker,2013-05-14 20:25:00,
2013-05-14 15:30:00,87.3,57.0,29.71,SSE,166,0.0,5.0,36,0.00,,,0.00,WeatherTracker,2013-05-14 20:30:00,
2013-05-14 15:35:00,87.8,55.1,29.70,East,86,1.0,2.0,33,0.00,,,0.00,WeatherTracker,2013-05-14 20:35:00,
2013-05-14 15:40:00,87.8,54.2,29.70,ESE,119,1.0,5.0,32,0.00,,,0.00,WeatherTracker,2013-05-14 20:40:00,
2013-05-14 15:45:00,88.0,56.1,29.69,East,86,1.0,5.0,34,0.00,,,0.00,WeatherTracker,2013-05-14 20:45:00,
2013-05-14 15:50:00,87.0,55.2,29.69,SE,130,3.0,7.0,34,0.00,,,0.00,WeatherTracker,2013-05-14 20:50:00,
2013-05-14 16:00:00,87.1,58.4,29.68,SSE,155,4.0,8.0,38,0.00,,,0.00,WeatherTracker,2013-05-14 21:00:00,
2013-05-14 16:05:00,87.8,55.1,29.68,East,94,1.0,9.0,33,0.00,,,0.00,WeatherTracker,2013-05-14 21:05:00,
2013-05-14 16:10:00,87.8,58.2,29.67,SSE,159,5.0,9.0,37,0.00,,,0.00,WeatherTracker,2013-05-14 21:10:00,
2013-05-14 16:15:00,87.7,56.6,29.67,South,180,2.0,9.0,35,0.00,,,0.00,WeatherTracker,2013-05-14 21:15:00,
2013-05-14 16:25:00,88.0,53.5,29.66,SSW,201,1.0,11.0,31,0.00,,,0.00,WeatherTracker,2013-05-14 21:25:00,
2013-05-14 16:30:00,88.3,52.9,29.66,SSE,163,4.0,11.0,30,0.00,,,0.00,WeatherTracker,2013-05-14 21:30:00,
2013-05-14 16:40:00,88.1,54.5,29.65,SSW,192,5.0,12.0,32,0.00,,,0.00,WeatherTracker,2013-05-14 21:40:00,
2013-05-14 16:45:00,87.5,56.4,29.64,SW,215,7.0,15.0,35,0.00,,,0.00,WeatherTracker,2013-05-14 21:45:00,
2013-05-14 16:50:00,87.4,54.7,29.64,SSE,151,5.0,20.0,33,0.00,,,0.00,WeatherTracker,2013-05-14 21:50:00,
2013-05-14 16:55:00,87.3,57.0,29.64,SE,143,6.0,21.0,36,0.00,,,0.00,WeatherTracker,2013-05-14 21:55:00,
2013-05-14 17:00:00,87.6,54.9,29.64,SW,218,8.0,21.0,33,0.00,,,0.00,WeatherTracker,2013-05-14 22:00:00,
2013-05-14 17:10:00,87.5,54.0,29.63,South,179,3.0,13.0,32,0.00,,,0.00,WeatherTracker,2013-05-14 22:10:00,
2013-05-14 17:15:00,87.6,56.5,29.63,SSW,200,5.0,12.0,35,0.00,,,0.00,WeatherTracker,2013-05-14 22:15:00,
2013-05-14 17:20:00,87.2,56.2,29.63,ESE,119,4.0,10.0,35,0.00,,,0.00,WeatherTracker,2013-05-14 22:20:00,
2013-05-14 17:25:00,87.2,57.0,29.62,SW,218,4.0,10.0,36,0.00,,,0.00,WeatherTracker,2013-05-14 22:25:00,
2013-05-14 17:35:00,87.1,51.9,29.62,SE,143,5.0,12.0,30,0.00,,,0.00,WeatherTracker,2013-05-14 22:35:00,
2013-05-14 17:40:00,87.1,50.9,29.62,SE,132,2.0,13.0,29,0.00,,,0.00,WeatherTracker,2013-05-14 22:40:00,
2013-05-14 17:45:00,86.8,53.4,29.62,South,172,8.0,13.0,32,0.00,,,0.00,WeatherTracker,2013-05-14 22:45:00,
2013-05-14 17:50:00,86.2,51.1,29.62,South,184,2.0,12.0,30,0.00,,,0.00,WeatherTracker,2013-05-14 22:50:00,
2013-05-14 17:55:00,85.2,53.6,29.62,ESE,119,3.0,12.0,34,0.00,,,0.00,WeatherTracker,2013-05-14 22:55:00,
2013-05-14 18:05:00,84.7,52.4,29.61,South,175,4.0,11.0,33,0.00,,,0.00,WeatherTracker,2013-05-14 23:05:00,
2013-05-14 18:10:00,84.7,52.4,29.62,WSW,248,4.0,11.0,33,0.00,,,0.00,WeatherTracker,2013-05-14 23:10:00,
2013-05-14 18:15:00,84.5,52.2,29.61,SSW,200,3.0,9.0,33,0.00,,,0.00,WeatherTracker,2013-05-14 23:15:00,
2013-05-14 18:20:00,84.6,51.5,29.61,ESE,118,4.0,9.0,32,0.00,,,0.00,WeatherTracker,2013-05-14 23:20:00,
2013-05-14 18:30:00,84.2,50.3,29.62,SSW,200,1.0,9.0,31,0.00,,,0.00,WeatherTracker,2013-05-14 23:30:00,
2013-05-14 18:35:00,84.2,51.1,29.62,South,169,0.0,5.0,32,0.00,,,0.00,WeatherTracker,2013-05-14 23:35:00,
2013-05-14 18:40:00,84.2,51.9,29.62,SSW,196,0.0,3.0,33,0.00,,,0.00,WeatherTracker,2013-05-14 23:40:00,
2013-05-14 18:50:00,83.7,53.9,29.64,South,190,1.0,4.0,36,0.00,,,0.00,WeatherTracker,2013-05-14 23:50:00,
2013-05-14 18:55:00,83.3,52.0,29.64,SW,225,2.0,4.0,34,0.00,,,0.00,WeatherTracker,2013-05-14 23:55:00,
2013-05-14 19:00:00,82.9,51.6,29.62,SSE,165,3.0,5.0,34,0.00,,,0.00,WeatherTracker,2013-05-15 00:00:00,
2013-05-14 19:05:00,82.5,51.3,29.63,South,169,4.0,5.0,34,0.00,,,0.00,WeatherTracker,2013-05-15 00:05:00,
2013-05-14 19:10:00,82.2,51.0,29.62,West,265,4.0,9.0,34,0.00,,,0.00,WeatherTracker,2013-05-15 00:10:00,
2013-05-14 19:15:00,82.0,50.8,29.63,South,173,2.0,10.0,34,0.00,,,0.00,WeatherTracker,2013-05-15 00:15:00,
2013-05-14 19:25:00,81.8,51.4,29.64,SSE,166,3.0,6.0,35,0.00,,,0.00,WeatherTracker,2013-05-15 00:25:00,
2013-05-14 19:30:00,81.6,52.0,29.64,South,179,0.0,7.0,36,0.00,,,0.00,WeatherTracker,2013-05-15 00:30:00,
2013-05-14 19:35:00,81.6,51.3,29.65,SE,131,0.0,7.0,35,0.00,,,0.00,WeatherTracker,2013-05-15 00:35:00,
2013-05-14 19:40:00,81.4,51.1,29.66,SE,131,0.0,5.0,35,0.00,,,0.00,WeatherTracker,2013-05-15 00:40:00,
2013-05-14 19:45:00,81.3,53.2,29.66,SE,131,0.0,1.0,38,0.00,,,0.00,WeatherTracker,2013-05-15 00:45:00,
2013-05-14 19:50:00,81.1,52.3,29.68,SE,134,4.0,4.0,37,0.00,,,0.00,WeatherTracker,2013-05-15 00:50:00,
2013-05-14 19:55:00,80.9,53.6,29.69,SE,136,0.0,4.0,39,0.00,,,0.00,WeatherTracker,2013-05-15 00:55:00,
2013-05-14 20:05:00,80.3,57.6,29.67,East,80,1.0,6.0,46,0.00,,,0.00,WeatherTracker,2013-05-15 01:05:00,
2013-05-14 20:10:00,79.6,58.2,29.64,ESE,111,2.0,6.0,48,0.00,,,0.00,WeatherTracker,2013-05-15 01:10:00,
2013-05-14 20:15:00,79.0,58.2,29.62,SE,138,1.0,4.0,49,0.00,,,0.00,WeatherTracker,2013-05-15 01:15:00,
2013-05-14 20:25:00,77.4,58.4,29.61,SSE,165,5.0,6.0,52,0.01,,,0.01,WeatherTracker,2013-05-15 01:25:00,
2013-05-14 20:30:00,76.7,57.2,29.60,SSE,167,4.0,8.0,51,0.01,,,0.01,WeatherTracker,2013-05-15 01:30:00,
2013-05-14 20:35:00,76.1,56.1,29.60,South,169,3.0,8.0,50,0.01,,,0.01,WeatherTracker,2013-05-15 01:35:00,
2013-05-14 20:40:00,75.6,55.1,29.61,South,169,3.0,8.0,49,0.01,,,0.01,WeatherTracker,2013-05-15 01:40:00,
2013-05-14 20:45:00,75.4,54.9,29.61,ESE,119,2.0,8.0,49,0.01,,,0.01,WeatherTracker,2013-05-15 01:45:00,
2013-05-14 20:55:00,75.1,54.6,29.62,SSE,155,2.0,9.0,49,0.01,,,0.01,WeatherTracker,2013-05-15 01:55:00,
2013-05-14 21:00:00,75.2,54.1,29.61,SE,134,2.0,7.0,48,0.01,,,0.01,WeatherTracker,2013-05-15 02:00:00,
2013-05-14 21:05:00,75.5,53.8,29.61,SSW,212,4.0,15.0,47,0.01,,,0.01,WeatherTracker,2013-05-15 02:05:00,
2013-05-14 21:15:00,76.4,54.1,29.61,South,171,5.0,12.0,46,0.01,,,0.01,WeatherTracker,2013-05-15 02:15:00,
2013-05-14 21:20:00,77.0,55.2,29.60,SE,127,4.0,12.0,47,0.00,,,0.01,WeatherTracker,2013-05-15 02:20:00,
2013-05-14 21:25:00,77.4,54.4,29.60,SSE,163,1.0,14.0,45,0.00,,,0.01,WeatherTracker,2013-05-15 02:25:00,
2013-05-14 21:35:00,77.8,55.3,29.59,South,188,5.0,8.0,46,0.00,,,0.01,WeatherTracker,2013-05-15 02:35:00,
2013-05-14 21:40:00,77.9,54.8,29.59,SSE,161,4.0,8.0,45,0.00,,,0.01,WeatherTracker,2013-05-15 02:40:00,
2013-05-14 21:50:00,77.8,55.3,29.59,South,184,3.0,8.0,46,0.00,,,0.01,WeatherTracker,2013-05-15 02:50:00,
2013-05-14 21:55:00,77.8,55.9,29.60,South,180,1.0,6.0,47,0.00,,,0.01,WeatherTracker,2013-05-15 02:55:00,
2013-05-14 22:00:00,77.6,56.3,29.60,South,180,1.0,10.0,48,0.00,,,0.01,WeatherTracker,2013-05-15 03:00:00,
2013-05-14 22:10:00,77.4,57.8,29.59,WSW,257,2.0,8.0,51,0.00,,,0.01,WeatherTracker,2013-05-15 03:10:00,
2013-05-14 22:15:00,77.3,58.8,29.59,SSE,164,3.0,9.0,53,0.00,,,0.01,WeatherTracker,2013-05-15 03:15:00,
2013-05-14 22:20:00,77.2,59.8,29.59,SSE,164,5.0,10.0,55,0.00,,,0.01,WeatherTracker,2013-05-15 03:20:00,
2013-05-14 22:25:00,77.3,59.9,29.59,SW,228,2.0,12.0,55,0.00,,,0.01,WeatherTracker,2013-05-15 03:25:00,
2013-05-14 22:35:00,77.4,60.5,29.59,SE,141,2.0,11.0,56,0.00,,,0.01,WeatherTracker,2013-05-15 03:35:00,
2013-05-14 22:40:00,77.4,60.5,29.59,SW,234,4.0,11.0,56,0.00,,,0.01,WeatherTracker,2013-05-15 03:40:00,
2013-05-14 22:45:00,77.3,60.4,29.59,SSW,212,5.0,10.0,56,0.00,,,0.01,WeatherTracker,2013-05-15 03:45:00,
2013-05-14 22:50:00,77.4,60.5,29.59,ESE,119,2.0,12.0,56,0.00,,,0.01,WeatherTracker,2013-05-15 03:50:00,
2013-05-14 22:55:00,77.4,60.5,29.59,South,177,2.0,12.0,56,0.00,,,0.01,WeatherTracker,2013-05-15 03:55:00,
2013-05-14 23:00:00,77.3,60.4,29.59,West,259,4.0,9.0,56,0.00,,,0.01,WeatherTracker,2013-05-15 04:00:00,
2013-05-14 23:05:00,77.3,60.4,29.58,SW,226,7.0,10.0,56,0.00,,,0.01,WeatherTracker,2013-05-15 04:05:00,
2013-05-14 23:10:00,77.2,60.3,29.58,SSW,196,4.0,10.0,56,0.00,,,0.01,WeatherTracker,2013-05-15 04:10:00,
2013-05-14 23:15:00,77.0,60.6,29.58,SSW,195,2.0,10.0,57,0.00,,,0.01,WeatherTracker,2013-05-15 04:15:00,
2013-05-14 23:20:00,76.9,60.5,29.59,SW,227,4.0,12.0,57,0.00,,,0.01,WeatherTracker,2013-05-15 04:20:00,
2013-05-14 23:30:00,76.6,60.2,29.58,South,189,4.0,12.0,57,0.00,,,0.01,WeatherTracker,2013-05-15 04:30:00,
2013-05-14 23:35:00,76.4,60.0,29.58,South,191,2.0,9.0,57,0.00,,,0.01,WeatherTracker,2013-05-15 04:35:00,
2013-05-14 23:40:00,76.2,59.8,29.58,SW,229,2.0,9.0,57,0.00,,,0.01,WeatherTracker,2013-05-15 04:40:00,
2013-05-14 23:45:00,76.0,60.1,29.58,West,277,3.0,11.0,58,0.00,,,0.01,WeatherTracker,2013-05-15 04:45:00,
2013-05-14 23:50:00,75.9,60.0,29.58,South,190,2.0,11.0,58,0.00,,,0.01,WeatherTracker,2013-05-15 04:50:00,
2013-05-14 23:55:00,75.8,60.0,29.59,ESE,110,3.0,9.0,58,0.00,,,0.01,WeatherTracker,2013-05-15 04:55:00,